Reflectivity
-20 -20 -20 -20 -20 -20 -20 -20 -20 -20 -20 -20 -20 -20 -20 -20 -20 -20 -20 -20 -20 -20 -20 -20 -20 -20 -20 -20 -20 -20 -20 -20 -20 -20 -20 -20 -20 -20 -20 -20 -20 -20 -20
-20 -20 -20 -20 -20 -20 -20 -20 -20 -20 -20 -20 -20 -20 -20 -20 -20 -20 -20 -20 -20 -20 -20 -20 -20 -20 -20 -20 -20 -20 -20 -20 -20 -20 -20 -20 -20 -20 -20 -20 -20 -20 -20
-20 -20 -20 -20 -20 -20 -20 -20 -20 -20 -20 -20 -20 -20 -20 -20 -20 -20 -20 -19 -20 -20 -20 -20 -20 -20 -20 -20 -20 -20 -20 -20 -20 -20 -20 -20 -20 -20 -20 -20 -20 -20 -20
-20 -20 -20 -20 -20 -20 -20 -20 -20 -20 -20 -20 -20 -20 -20 -20 -20 -20 -20 -20 -20 -20 -20 -20 -20 -20 -20 -20 -20 -20 -20 -20 -20 -20 -20 -20 -20 -20 -20 -20 -20 -20 -20
-20 -20 -20 -20 -19 0 -20 -20 -20 -20 -20 -20 -20 -20 -20 -20 -20 -20 -20 -20 -20 -20 -20 -20 -20 -20 -20 -20 -20 -20 -20 -20 -20 -20 -20 -20 -20 -20 -20 -20 -20 -20 -20
12 -16 -20 -20 -20 -20 -20 -20 -20 -20 -20 -20 -20 -20 -20 -20 -20 -20 -20 -20 -20 -20 -20 -20 -20 -20 -20 -20 -20 -20 -20 -20 -20 -20 -20 -20 -20 -20 -20 -20 -20 -20 -20
-19 23 -14 -20 -20 -20 -20 -20 -20 -20 -20 -20 -20 -20 -20 -20 -20 -20 -20 -20 -20 -20 -20 -20 -20 -20 -20 -20 -20 -12 -20 -20 -20 -20 -20 -20 -20 -20 -20 -20 -20 -17 -20
20 -2 4 -18 -20 -20 -20 -20 -20 -20 -20 -20 -20 -20 -20 -20 -20 -20 -20 -20 -20 -20 -20 -20 -20 -20 -20 -20 -20 -20 -20 -20 -20 -20 -20 -20 -20 -20 -20 -20 -20 -20 -20
-4 7 -20 -0 -20 -20 -20 -20 -20 -20 -20 -20 -20 -20 -20 -20 -20 -20 -20 -20 -20 -20 -20 -20 -20 -20 -20 -20 -20 -20 -20 -20 -20 -20 -20 -20 -20 -20 -11 -20 -20 -20 -20
-15 -5 29 -14 -5 8 2 -6 -3 -5 -20 -20 -20 -20 -20 -20 -20 -20 -20 -20 -20 -20 -20 -20 -20 -20 -20 -20 -20 -20 -20 -20 -20 -20 -20 -0 8 -20 -15 -20 -20 -20 -20
-20 -7 -20 6 3 9 13 15 -18 13 12 -10 -20 -20 -20 -20 -20 -20 -20 -20 -20 -20 -20 -20 -20 -20 -20 -20 -20 -20 -20 -16 -20 -20 -20 -20 -20 -20 -20 -20 -20 -20 -20
-20 -20 -20 -17 8 17 5 -2 -20 12 9 5 2 -10 -20 -20 -20 -20 -20 -20 -20 -20 -20 -20 -20 -20 -20 -20 -0 -20 -20 7 -20 -20 -20 -20 -20 -20 -20 -20 -20 -20 -20
-20 -20 -20 -20 -6 6 27 3 1 -20 -5 7 7 -1 -20 -20 -20 -20 -19 -20 -20 -20 -20 -20 -20 -20 -20 6 -20 -20 3 -18 -20 -20 -20 -20 -20 -20 -20 -20 -20 -20 -20
-20 -20 -20 -20 -20 2 11 25 18 27 -20 -20 -19 2 -14 -20 -20 -20 -20 -19 -12 -20 -20 -20 -20 -16 -20 -20 -20 -4 -20 -20 -20 -20 -20 -20 -20 -20 -20 -20 -20 -20 -20
-20 -20 -20 -20 -20 -20 -20 -20 28 -18 18 16 6 3 9 3 -20 -20 -20 -20 -20 13 10 -20 -20 -20 -20 -11 -17 -20 -20 -20 -20 -20 -20 -20 -20 -20 -20 -20 -20 -20 -20
-20 -20 -20 -20 -20 -20 -20 -20 -20 6 -19 7 17 1 -20 -2 16 -20 9 26 17 32 -13 -20 -20 -20 -1 -20 -20 -20 -20 -20 -20 -20 -20 -20 -20 -20 -20 -20 -20 -20 -20
-20 -20 -20 -20 -20 -20 -20 -20 -20 -20 -20 -20 4 25 4 -15 8 8 37 29 12 32 -20 2 -20 -20 -20 -20 -20 -5 -20 -20 -12 -17 -20 -20 -20 -20 -19 -20 -20 -20 -20
-20 -20 -20 -20 -20 -20 -20 -20 -20 14 -14 1 22 5 -15 6 9 19 15 12 -6 6 -13 -18 -7 -20 -20 -4 -20 -20 -20 -20 -20 -18 -20 -20 -20 -20 -20 -20 -20 -20 -20
-20 -20 -20 -20 -20 -16 -16 -1 -3 -7 -7 -20 -11 24 -4 8 10 12 21 13 23 -10 -20 -18 -20 -14 -20 -20 -2 -10 -20 -20 -20 -19 -17 -20 -20 -20 -20 -20 -20 -12 -5
-20 -13 -4 -20 -19 -5 2 -18 0 5 -14 -20 -17 1 -7 -13 -17 -20 -20 23 32 13 2 -20 -18 -20 -3 -1 4 3 8 7 -20 -20 -16 -8 -8 -18 -14 0 -1 1 -20
-20 -20 -11 3 -10 11 8 -1 10 -6 -7 15 4 -2 -5 9 9 19 12 -20 15 18 6 -1 0 -3 -2 3 8 14 -19 -2 3 -20 -20 3 -6 7 -9 -20 -20 -20 -20
-1 0 -2 2 5 -1 -9 9 -13 -13 -20 -20 -19 -7 -20 -20 2 -1 14 15 -20 -14 -9 -4 28 -19 -20 -20 -20 -20 -2 -20 -20 -20 -20 -18 -14 -17 5 -15 -20 -20 -20
13 4 -19 -19 -7 4 -12 -20 -20 -20 -20 -20 -20 2 -20 -13 3 8 -7 -17 -19 20 8 -20 -20 -20 -20 -20 -10 12 -20 -20 -20 -19 25 12 15 4 2 -5 -14 -1 -8
-1 4 4 4 -20 -12 -20 -20 -20 -1 -12 -20 -20 -19 -20 -20 -20 -20 -20 -4 10 -2 -20 -8 5 16 -20 -20 -19 -20 -20 -20 5 31 -10 12 13 13 -2 6 -1 22 16
11 10 7 -19 -20 -15 -11 -7 -6 -18 -19 -20 -16 -10 -10 -13 0 0 -16 -0 14 8 -1 11 12 9 7 14 -3 -9 17 15 -1 16 25 25 27 23 25 21 20 12 16
13 11 8 4 2 3 -2 -12 -2 -2 -4 -3 -4 16 8 -4 17 10 5 9 16 21 11 12 12 -6 -3 11 22 26 19 25 5 20 6 -20 -3 -12 17 31 23 23 21
Wind_Speed
17 15 15 14 14 13 12 12 11 9 9 9 9 9 9 9 9 9 8 7 8 7 6 6 6 5 5 4 4 4 4 3 6 6 4 5 5 7 9 8 8 8 8
13 14 13 12 13 14 14 14 12 12 10 10 8 9 9 9 9 10 10 9 10 9 8 7 7 6 6 5 5 5 5 4 6 8 7 7 7 8 8 9 8 7 7
12 13 10 11 12 16 15 14 13 13 13 11 10 10 10 10 11 11 11 10 10 10 9 9 8 8 7 6 6 5 5 5 6 7 8 6 7 7 9 8 7 7 7
14 15 13 13 13 15 14 14 14 13 13 13 13 12 12 11 12 11 11 11 11 11 11 11 10 10 9 8 7 7 7 7 7 8 8 8 8 7 7 8 9 8 9
13 15 17 16 15 13 13 14 14 14 14 14 14 14 13 12 10 12 12 12 11 11 12 12 12 12 11 10 7 7 7 8 7 8 9 9 8 7 8 8 8 8 9
11 15 14 13 13 14 14 15 14 15 14 14 15 15 15 13 13 14 13 12 12 12 12 13 13 11 12 13 13 13 10 9 10 9 9 10 10 9 7 7 8 8 8
9 11 14 13 14 14 15 14 14 14 14 15 15 15 16 16 12 15 17 14 13 13 13 12 12 11 12 12 13 14 13 14 15 11 12 12 12 10 10 10 9 8 10
5 4 9 12 14 14 14 15 14 13 14 14 15 15 15 14 14 16 17 18 14 15 15 15 14 14 13 13 12 12 12 12 11 10 14 14 13 11 10 9 9 9 8
12 10 8 10 13 14 14 14 14 13 13 14 14 15 16 16 15 18 15 16 17 17 15 16 15 15 14 16 14 14 13 13 10 14 15 12 13 10 10 9 9 9 10
11 13 14 9 8 9 12 13 13 13 14 12 14 15 16 17 14 17 17 14 15 14 15 16 16 19 14 15 15 14 14 14 13 13 10 10 13 13 12 12 10 11 10
13 12 12 13 8 7 8 8 12 13 13 13 14 14 15 16 16 17 19 15 14 14 14 13 14 20 20 16 19 15 15 13 12 11 12 11 10 10 9 10 11 11 10
13 13 11 12 10 8 7 6 8 7 11 11 13 13 13 15 16 15 19 23 17 15 15 13 13 14 19 19 16 18 15 11 11 11 11 11 11 10 9 9 10 11 11
12 13 14 13 12 8 8 10 7 10 11 11 11 11 12 12 13 18 18 21 23 16 15 14 12 12 16 16 18 15 14 11 12 12 12 12 11 10 8 9 10 11 12
11 12 12 13 12 12 8 8 7 10 10 10 9 12 12 12 12 12 11 11 18 16 19 15 13 11 12 12 11 12 12 13 13 12 12 11 10 10 10 9 9 8 9
10 11 11 10 12 12 10 9 10 9 9 10 7 8 11 13 14 12 12 10 9 13 12 13 13 13 13 11 12 13 12 12 13 13 13 12 11 11 11 10 10 9 10
9 9 9 10 10 9 10 12 12 16 14 19 17 13 12 16 13 11 13 11 12 9 8 12 13 13 13 10 10 11 13 13 13 13 13 13 13 12 12 11 10 11 11
9 9 9 10 11 11 11 9 11 9 13 18 18 19 16 21 13 10 12 13 10 11 12 11 11 10 9 9 10 13 13 11 13 13 13 13 12 12 11 11 11 11 12
11 9 9 10 11 11 11 11 10 12 12 9 10 14 12 16 15 13 13 6 3 7 13 11 10 10 11 12 12 13 12 10 10 12 13 13 12 11 11 12 12 13 13
10 8 8 10 11 12 12 12 11 12 12 11 12 14 12 7 5 7 13 11 11 13 13 13 13 13 10 10 12 12 13 11 10 10 12 12 12 11 12 12 11 10 10
10 15 13 10 10 11 10 11 10 10 11 9 9 14 10 1 3 3 6 9 13 15 14 14 13 13 11 10 10 10 10 11 10 10 10 10 10 10 10 10 9 8 8
10 11 16 10 10 10 10 11 9 9 9 10 13 14 11 10 9 10 10 9 11 13 13 13 13 11 11 11 10 10 11 11 11 11 10 10 10 9 9 7 6 6 5
10 10 9 9 10 10 11 10 10 10 11 11 13 15 12 11 10 11 11 9 10 8 7 8 6 4 4 5 7 9 11 11 10 9 9 8 7 8 7 7 7 6 8
9 8 10 10 10 11 10 9 9 9 10 9 10 10 11 12 11 10 3 3 3 4 4 4 3 3 3 2 2 1 2 2 2 3 4 5 6 6 7 8 9 10 11
9 10 9 8 8 8 9 9 8 8 9 9 8 7 6 5 4 4 5 5 5 5 5 5 6 6 4 4 3 3 2 2 2 3 0 2 4 4 8 9 9 12 12
7 7 7 6 6 6 7 7 6 6 5 5 4 3 3 4 5 5 7 7 7 7 9 7 6 10 10 9 8 7 6 5 7 6 5 7 10 11 7 8 10 9 8
10 8 6 4 4 4 4 3 1 2 2 2 3 3 4 5 6 5 7 9 9 8 9 8 11 16 14 11 11 9 6 10 11 8 9 9 9 9 8 10 12 8 6
Wind_Direction
208 208 208 209 212 223 223 217 218 213 208 211 213 211 207 204 207 209 223 218 214 219 219 224 233 226 246 243 232 237 246 252 283 306 286 309 300 315 327 335 332 328 340
210 210 209 216 208 214 220 220 217 221 215 213 210 215 215 209 208 212 216 217 217 220 224 222 231 220 225 231 238 247 254 246 272 288 312 300 298 317 316 321 331 332 338
208 209 202 209 214 218 224 221 215 221 223 222 216 213 216 217 215 218 224 228 225 227 227 226 228 224 231 234 233 242 246 251 246 274 293 295 300 308 320 316 328 330 318
217 216 209 203 208 222 225 221 221 219 222 225 224 221 221 219 214 215 220 225 231 231 228 228 229 225 230 232 234 240 250 259 256 263 280 288 294 317 302 313 328 331 330
226 224 222 217 211 214 217 221 221 220 224 227 231 228 228 229 224 218 219 221 225 230 230 229 230 232 224 231 244 242 255 250 264 272 278 281 283 304 315 322 308 324 317
259 242 238 230 225 220 220 219 215 218 223 224 227 231 234 233 223 207 216 219 223 227 230 229 235 220 231 225 223 237 253 254 259 271 278 282 286 285 295 299 309 320 316
260 252 250 243 233 227 227 227 223 221 218 220 228 231 232 234 222 208 211 229 226 225 228 231 232 232 221 236 218 225 236 233 236 253 263 266 277 280 286 288 294 297 291
322 296 270 252 246 240 234 233 231 228 225 221 224 227 231 233 216 209 207 229 237 234 233 231 232 237 229 227 234 239 241 244 232 233 241 255 259 268 271 275 292 286 277
353 339 340 325 254 245 242 241 239 236 232 231 231 226 228 236 213 211 203 231 237 237 236 235 233 236 231 209 234 245 249 252 237 227 247 256 250 248 258 283 268 275 286
346 334 321 313 304 285 252 246 244 237 239 237 238 232 229 238 220 212 204 230 238 238 236 237 217 233 218 199 219 239 247 250 254 264 246 236 238 247 216 233 253 263 276
332 329 327 320 316 307 302 266 240 241 247 243 241 240 238 231 235 205 202 223 232 233 240 238 236 207 222 204 206 233 239 251 251 252 259 257 248 241 238 209 233 249 263
327 325 326 319 313 335 304 292 296 258 241 242 247 248 242 241 229 215 202 210 222 232 239 240 241 201 207 209 207 231 232 235 252 254 254 253 252 246 243 242 237 239 253
323 321 323 325 323 307 310 294 281 256 259 259 247 245 250 248 240 213 209 207 219 231 239 238 239 204 206 217 219 222 224 238 244 243 243 248 250 254 258 243 244 244 248
313 316 316 319 321 314 309 295 281 277 267 259 259 255 252 248 245 242 217 216 224 222 239 241 241 238 227 237 223 212 228 231 234 237 242 244 247 244 234 234 240 239 238
303 308 306 301 307 304 295 285 276 263 268 292 283 277 256 249 245 235 234 220 211 222 223 235 238 231 234 229 236 235 226 226 230 236 242 242 240 241 239 235 234 233 236
291 294 302 300 291 290 291 288 251 251 268 272 256 247 277 266 277 226 218 229 227 207 217 236 234 233 230 221 223 228 230 232 237 239 238 239 240 239 240 237 231 232 233
286 291 290 292 291 291 285 290 299 283 246 246 251 263 245 263 258 232 224 226 227 183 230 234 240 231 223 225 226 231 236 225 225 241 241 239 238 242 238 242 237 234 236
289 286 280 281 284 284 283 285 285 291 294 301 280 262 263 245 240 235 226 142 192 236 230 232 230 226 228 229 225 230 234 226 229 234 240 239 234 233 234 234 233 236 235
282 281 288 286 282 282 279 276 274 276 275 281 297 288 276 306 279 232 189 218 220 227 218 230 226 230 220 227 236 232 232 223 218 229 234 238 236 233 235 237 238 245 248
279 277 271 273 276 277 274 272 270 269 273 283 279 276 290 241 252 230 214 217 233 236 228 225 227 232 228 225 227 228 230 228 219 225 230 234 226 225 226 225 221 225 218
276 275 272 267 267 272 270 270 274 279 280 283 282 280 281 277 269 265 238 216 231 237 242 229 229 230 229 226 227 225 227 231 228 224 224 225 226 227 221 221 208 193 180
276 267 262 262 270 262 264 268 267 269 270 265 273 280 278 268 267 268 260 238 231 235 266 264 247 234 224 220 221 227 230 230 227 227 225 217 211 207 188 191 190 193 205
279 278 274 268 263 266 265 265 265 265 269 272 277 281 280 273 265 255 285 20 12 36 7 352 74 98 61 54 39 320 215 123 64 358 263 205 195 194 203 202 201 214 228
294 279 273 269 269 269 269 268 270 266 271 277 281 290 300 334 18 40 69 61 51 53 38 39 49 50 69 71 61 45 351 283 258 254 285 274 270 237 242 239 242 243 238
308 294 280 275 272 271 271 268 275 280 280 284 297 311 0 23 45 45 62 71 64 53 54 45 49 57 46 49 72 65 11 64 111 104 83 64 43 20 325 255 238 229 231
338 335 326 318 316 302 280 274 307 314 320 9 44 51 68 67 67 62 68 76 75 61 59 55 57 61 57 46 17 356 37 50 63 47 87 84 81 68 48 15 22 40 41